Lexington Weather

Lexington, Massachusetts, USA

29°F
3/6/2021 6:46pm 
  • Lexington Conditions: Partly cloudy
  • Temperature: 28.9°F / -1.7°CColder 1.7°F than last hour.
  • Dew Point: 13.1°FDecreased 0.5°Fsince last hour.
  • Relative Humidity: 51%Increased 2.0% since last hour.
  • Wind: Wind from WNW WNW 3 mph, 10-min avg: 1 mph, gust: 8 mph
  • Barometer: 30.03 inRising 0.04  inHg/hr Rising Slowly
  • Visibility: 10 miles
  • Snow Today: 0.0 in
  •   

Regional Weather Roundup
for Boston / Norton, MA

        
000
ASUS41 KBOX 042004
RWRBOX

REGIONAL WEATHER ROUNDUP
NATIONAL WEATHER SERVICE BOSTON/NORTON MA
300 PM EST THU MAR 04 2021

NOTE:  "FAIR" INDICATES FEW OR NO CLOUDS BELOW 12,000 FEET WITH NO 
SIGNIFICANT WEATHER AND/OR OBSTRUCTIONS TO VISIBILITY.

MAZALL-042100-
EASTERN MASSACHUSETTS
  
CITY           SKY/WX    TMP DP  RH WIND       PRES   REMARKS
BOSTON         MOSUNNY   39  11  31 W24G32    29.64F WCI  28          
BEVERLY        SUNNY     37  11  34 NW14G24   29.61F WCI  28          
LAWRENCE       SUNNY     36  12  37 W16G24    29.64F WCI  26          
BEDFORD        MOSUNNY   37  14  38 NW16G32   29.64F WCI  28          
BLUE HILL        N/A     35  15  44 NW24G36   29.59F WCI  23          
NORWOOD        MOSUNNY   40  13  33 NW18G30   29.65S WCI  31          
MARSHFIELD     NOT AVBL                                               
PLYMOUTH       PTSUNNY   39  16  39 NW21G28   29.61F WCI  29          
TAUNTON        MOSUNNY   41  15  35 NW14G23   29.64S                  
NEW BEDFORD    MOSUNNY   41  14  33 W13G28    29.63S                  
$$

MAZALL-042100-
CAPE COD AND THE ISLANDS
  
CITY           SKY/WX    TMP DP  RH WIND       PRES   REMARKS
FALMOUTH       PTSUNNY   43  18  36 NW16G26   29.61F                  
HYANNIS        PTSUNNY   42  18  37 W12G20    29.59F                  
CHATHAM        CLOUDY    40  20  44 NW10G18   29.62F                  
PROVINCETOWN   CLOUDY    37  20  50 NW22G32   29.62F WCI  26          
NANTUCKET        N/A    N/A N/A N/A MISG        N/A                   
MARTHAS VNYRD  PTSUNNY   43  21  41 W13G24    29.63F                  
$$
 
MAZALL-042100-
CENTRAL AND WESTERN MASSACHUSETTS
  
CITY           SKY/WX    TMP DP  RH WIND       PRES   REMARKS
WORCESTER      SUNNY     34  11  38 W20G28    29.63F WCI  23          
FITCHBURG      SUNNY     35  13  40 NW17G30   29.66F WCI  25          
ORANGE         SUNNY     34  10  37 NW15G28   29.69S WCI  24          
SPRINGFIELD    PTSUNNY   37   9  31 NW16G28   29.70F WCI  28          
WESTFIELD      PTSUNNY   35  14  42 W15G31    29.72F WCI  25          
NORTH ADAMS    MOSUNNY   34   8  33 W17G29    29.74S WCI  23          
PITTSFIELD     PTSUNNY   29  11  47 NW17G24   29.71S WCI  17          
$$
 
RIZALL-042100-
RHODE ISLAND
  
CITY           SKY/WX    TMP DP  RH WIND       PRES   REMARKS
PROVIDENCE     PTSUNNY   40  16  37 NW21G30   29.67S WCI  30          
NEWPORT        PTSUNNY   38  20  48 NW17G29   29.65S WCI  28          
BLOCK ISLAND   SUNNY     40  18  41 NW15G26   29.68S WCI  32          
SMITHFIELD     PTSUNNY   37  16  42 NW15G29   29.66S WCI  28          
WESTERLY       MOSUNNY   39  13  34 W13G24    29.68S WCI  31          
$$
 
CTZALL-042100-
CONNECTICUT
  
CITY           SKY/WX    TMP DP  RH WIND       PRES   REMARKS
BRADLEY INTL   MOSUNNY   37  11  34 W20G31    29.74S WCI  27          
HARTFORD       MOSUNNY   39  10  30 NW17G30   29.76R WCI  30          
BRIDGEPORT     NOT AVBL                                               
DANBURY        PTSUNNY   39  14  36 NW15G29   29.76R WCI  31          
GROTON         SUNNY     41  14  33 NW18G32   29.69S                  
NEW HAVEN      MOSUNNY   42  16  34 NW20G30   29.73S                  
CHESTER        FAIR      39  12  33 NW15G26   29.71R WCI  31          
MERIDEN        PTSUNNY   39  15  37 NW16G29   29.74S WCI  30          
WILLIMANTIC    PTSUNNY   37  13  37 N17G32    29.72R WCI  27          
OXFORD         MOSUNNY   36  15  42 NW13G22   29.73R WCI  27          
$$

MEZ002-015-021-024-NHZ003-005-008-011-012-014-VTZ005-008-042100-
NORTHERN NEW ENGLAND
  
CITY           SKY/WX    TMP DP  RH WIND       PRES   REMARKS
PORTLAND ME    SUNNY     36   8  31 NW21G30   29.54F WCI  25          
BANGOR ME      MOSUNNY   31   9  39 W17G28    29.42F WCI  19          
CONCORD NH     SUNNY     34   8  33 NW18G30   29.64F WCI  23          
MANCHESTER NH  MOSUNNY   36   4  26 NW18G31   29.62F WCI  26          
NASHUA NH      SUNNY     36   8  31 NW15G26   29.65F WCI  27          
PORTSMOUTH NH  NOT AVBL                                               
JAFFREY NH     SUNNY     31   8  38 NW10G26   29.64F WCI  22          
KEENE NH       SUNNY     32  10  40 NW17G24   29.69F WCI  21          
BURLINGTON VT  PTSUNNY   26   6  42 N13       29.79F WCI  15          
MT. WASHINGTON BLWGSNOW   0   0 100 NW68        N/A  VSB 1/16WCI -35  
$$

NYZ052-076-042100-
EASTERN NEW YORK
  
CITY           SKY/WX    TMP DP  RH WIND       PRES   REMARKS
ALBANY         MOSUNNY   31   7  36 W22G35    29.81S WCI  18          
NEW YORK CITY  MOSUNNY   42  17  36 NW24G32   29.79R                  
$$
 
ANZALL-042100-
MARINE OBSERVATIONS
  
STATION/POSITION TIME  TEMP    WIND        PRES    VSBY  WAVE
                       AIR SEA DIR/SP/G                  HT/PER
                 (UTC) (F)     (DEG/KT/KT) (MB)    (MI)  (FT/S)
BOSTON BUOY      1940   35 40  290/ 23/ 29 1003.6S
BUZZARDS BAY     1900          290/ 18/ 20 1004.9F
NANTUCKET SOUND  1940      36  210/  6/ 10   N/A
MASS BAY-STELLWA 1904   36     290/ 21/ 27 1001.4F  1 7/8  3/ 4
ISLE OF SHOALS   1900   33     300/ 29/ 33 1001.5F
S OF BLOCK IS    1926      41                N/A           4/ 4
$$

......................KEY.........................
  SKY/WX - SKY CONDITION/PRESENT WEATHER
  TMP    - TEMPERATURE IN FAHRENHEIT
  DWPT   - DEWPOINT IN FAHRENHEIT
  RH     - RELATIVE HUMIDITY IN PERCENT
  WIND   - DIRECTION AND SPEED IN MPH
  PRES   - MEAN SEA LEVEL PRESSURE IN INCHES OF HG
  WCI    - WIND CHILL INDEX
  VSB    - VISIBILITY IN MILES
  HX     - HEAT INDEX
  TC     - TEMPERATURE IN CELSIUS
  VRB    - VARIABLE WIND DIRECTION
  N/A    - NOT AVAILABLE
  
      

Other recent Regional Weather Roundups

Sat Mar 6, 6:04pm

Sat Mar 6, 5:04pm

Sat Mar 6, 4:05pm

Sat Mar 6, 3:04pm

Sat Mar 6, 2:04pm

Sat Mar 6, 1:05pm

Sat Mar 6, 12:04pm

Sat Mar 6, 11:04am

Sat Mar 6, 10:04am

Sat Mar 6, 9:04am

Sat Mar 6, 8:04am

Sat Mar 6, 7:04am

Sat Mar 6, 6:04am

Sat Mar 6, 5:04am

Sat Mar 6, 4:04am

Sat Mar 6, 3:04am

Sat Mar 6, 2:04am

Sat Mar 6, 1:04am

Sat Mar 6, 12:04am

Fri Mar 5, 11:04pm

Fri Mar 5, 10:04pm

Fri Mar 5, 9:04pm

Fri Mar 5, 8:04pm

Fri Mar 5, 7:04pm

Fri Mar 5, 6:04pm

Fri Mar 5, 5:04pm

Fri Mar 5, 4:05pm

Fri Mar 5, 3:04pm

Fri Mar 5, 2:04pm

Fri Mar 5, 1:04pm

Fri Mar 5, 12:04pm

Fri Mar 5, 11:04am

Fri Mar 5, 10:04am

Fri Mar 5, 9:04am

Fri Mar 5, 8:04am

Fri Mar 5, 7:04am

Fri Mar 5, 6:04am

Fri Mar 5, 5:04am

Fri Mar 5, 4:04am

Fri Mar 5, 3:04am

Fri Mar 5, 2:04am

Fri Mar 5, 1:04am

Fri Mar 5, 12:04am

Thu Mar 4, 11:04pm

Thu Mar 4, 10:04pm

Thu Mar 4, 9:04pm

Thu Mar 4, 8:04pm

Thu Mar 4, 7:04pm

Thu Mar 4, 6:04pm

Thu Mar 4, 5:04pm

Thu Mar 4, 4:04pm

Thu Mar 4, 2:04pm

Thu Mar 4, 1:04pm

Thu Mar 4, 12:04pm

Thu Mar 4, 11:04am

Thu Mar 4, 10:04am

Thu Mar 4, 9:04am

Thu Mar 4, 8:04am

Thu Mar 4, 7:04am

Thu Mar 4, 6:04am

Thu Mar 4, 5:04am

Thu Mar 4, 4:04am

Thu Mar 4, 3:04am

Thu Mar 4, 2:04am

Thu Mar 4, 1:04am

Thu Mar 4, 12:04am

Wed Mar 3, 11:04pm

Wed Mar 3, 10:04pm

Wed Mar 3, 9:04pm

Wed Mar 3, 8:04pm

Wed Mar 3, 7:04pm

Wed Mar 3, 6:04pm

Wed Mar 3, 5:04pm

Wed Mar 3, 4:04pm

Wed Mar 3, 3:04pm

Wed Mar 3, 2:04pm

Wed Mar 3, 1:04pm

Wed Mar 3, 12:04pm

Wed Mar 3, 11:04am

Wed Mar 3, 10:04am

Wed Mar 3, 9:04am

Wed Mar 3, 8:04am

Wed Mar 3, 7:04am

Wed Mar 3, 6:05am

Wed Mar 3, 5:04am

Wed Mar 3, 4:04am

Wed Mar 3, 3:04am

Wed Mar 3, 2:04am

Wed Mar 3, 1:04am

Wed Mar 3, 12:04am

Tue Mar 2, 11:04pm

Tue Mar 2, 10:05pm

Tue Mar 2, 9:04pm

Tue Mar 2, 8:04pm

Tue Mar 2, 7:04pm

Tue Mar 2, 6:04pm

Tue Mar 2, 5:04pm

Tue Mar 2, 4:05pm

Tue Mar 2, 3:04pm

Tue Mar 2, 2:04pm

Tue Mar 2, 1:04pm

Tue Mar 2, 12:04pm

Tue Mar 2, 11:04am

Tue Mar 2, 10:05am

Tue Mar 2, 9:04am

Tue Mar 2, 8:04am

Tue Mar 2, 7:04am

Tue Mar 2, 6:05am

Tue Mar 2, 5:04am

Tue Mar 2, 4:04am

Tue Mar 2, 3:04am

Tue Mar 2, 2:04am

Tue Mar 2, 1:04am

Tue Mar 2, 12:04am

Mon Mar 1, 11:04pm

Mon Mar 1, 10:04pm

Mon Mar 1, 9:04pm

Mon Mar 1, 8:04pm

Mon Mar 1, 7:04pm

Mon Mar 1, 6:04pm

Mon Mar 1, 5:04pm

Mon Mar 1, 4:05pm

Mon Mar 1, 3:05pm

Mon Mar 1, 2:04pm

Mon Mar 1, 1:04pm

Mon Mar 1, 12:04pm

Mon Mar 1, 11:04am

Mon Mar 1, 10:04am

Mon Mar 1, 9:04am

Mon Mar 1, 8:05am

Mon Mar 1, 7:04am

Mon Mar 1, 6:04am

Mon Mar 1, 5:04am

Mon Mar 1, 4:05am

Mon Mar 1, 3:04am

Mon Mar 1, 2:04am

Mon Mar 1, 1:04am

Mon Mar 1, 12:05am

Sun Feb 28, 11:04pm

Sun Feb 28, 10:04pm

Sun Feb 28, 9:04pm

Sun Feb 28, 8:04pm

Sun Feb 28, 7:04pm

Sun Feb 28, 6:05pm

Sun Feb 28, 5:04pm

Sun Feb 28, 4:05pm

Sun Feb 28, 3:04pm

Sun Feb 28, 2:04pm

Sun Feb 28, 1:04pm

Sun Feb 28, 12:04pm

Sun Feb 28, 11:04am

Sun Feb 28, 10:04am

Sun Feb 28, 9:04am

Sun Feb 28, 8:04am

Sun Feb 28, 7:04am

Sun Feb 28, 6:04am

Sun Feb 28, 5:04am

Sun Feb 28, 4:04am

Sun Feb 28, 3:04am

Sun Feb 28, 2:04am

Sun Feb 28, 1:04am

Sun Feb 28, 12:04am

Sat Feb 27, 11:04pm

Sat Feb 27, 10:04pm

Sat Feb 27, 9:04pm

Sat Feb 27, 8:04pm

Sat Feb 27, 7:04pm

Meta data:

ID: 2e287ad2-aae7-44ac-8e73-adb39d47c12b
Link: https://api.weather.gov/products/2e287ad2-aae7-44ac-8e73-adb39d47c12b